Regional Weather Roundup
Issued by NWS Northern Indiana

Home | Current Version | Previous Version | Graphics & Text | Print | Product List | Glossary On
Versions: 1 2 3 4 5 6 7 8 9 10 11 12 13 14 15 16 17 18 19 20 21 22 23 24 25 26 27 28 29 30 31 32 33 34 35 36 37 38 39 40 41 42 43 44 45 46 47 48 49 50
000
ASUS43 KIWX 032300
RWRIWX

KIWX WEATHER ROUNDUP
NATIONAL WEATHER SERVICE NORTHERN INDIANA
700 PM EDT MON AUG 03 2015

NOTE: "FAIR" INDICATES FEW OR NO CLOUDS BELOW 12,000 FEET WITH NO
SIGNIFICANT WEATHER AND/OR OBSTRUCTIONS TO VISIBILITY.

* THESE STATIONS ARE NOT UNDER NWS QUALITY CONTROL. THEY ALSO MAY NOT
  REPORT WEATHER SUCH AS PRECIPITATION OR FOG.

INZ001>027-040000-
NORTHERN INDIANA

CITY           SKY/WX    TMP DP  RH WIND       PRES   REMARKS
GARY*          SUNNY     79  50  36 NE8       29.86S
KNOX*          SUNNY     77  54  44 N10       29.85S
SOUTH BEND     SUNNY     78  47  33 NW13      29.87R
ELKHART*       SUNNY     77  45  31 NW9       29.87R
GOSHEN         SUNNY     76  51  41 NW10      29.86R
MONTICELLO*    SUNNY     81  61  50 W10G16    29.85R
WARSAW*        SUNNY     77  55  47 NW9       29.86S
ANGOLA*        SUNNY     75  68  78 NW9       29.86R
FORT WAYNE     MOSUNNY   80  58  46 NW7       29.85R

$$
INZ028>050-040000-
CENTRAL INDIANA

CITY           SKY/WX    TMP DP  RH WIND       PRES   REMARKS
LAFAYETTE      SUNNY     81  62  52 NW8       29.85R
KOKOMO*        MOSUNNY   82  63  51 NW8       29.85R
MUNCIE*        MOSUNNY   79  65  62 NW12      29.86R
INDIANAPOLIS   MOSUNNY   85  66  53 W17       29.84S

$$
MIZ043>046-050>051-056>058-064>065-071>073-077>080-040000-
SOUTHWEST LOWER MICHIGAN

CITY           SKY/WX    TMP DP  RH WIND       PRES   REMARKS
BATTLE CREEK     N/A    N/A N/A N/A MISG      29.86R
BENTON HARBOR  SUNNY     75  53  46 N5        29.86S
COLDWATER*     SUNNY     74  47  38 W14G20    29.85S
HILLSDALE*     SUNNY     75  49  39 W14G23    29.85R
HOLLAND        SUNNY     75  53  46 W7        29.86R
GRAND RAPIDS   MOSUNNY   75  48  38 W17       29.83S
KALAMAZOO      SUNNY     75  49  39 NW15      29.86R
STURGIS*       SUNNY     73  50  43 NW10G21   29.86R
THREE RIVERS*  FAIR      75  48  38 NW12      29.86S

$$
OHZ001>008-015>018-024>025-040000-
NORTHWEST OHIO

CITY           SKY/WX    TMP DP  RH WIND       PRES   REMARKS
DEFIANCE       SUNNY     79  55  43 NW17G23   29.84R
FINDLAY        PTSUNNY   80  64  58 W8        29.81R
TOLEDO EXPRESS SUNNY     79  57  46 W14       29.81R
TOLEDO METCALF MOSUNNY   80  57  45 NW20G26   29.81R
LIMA           MOSUNNY   80  60  50 W9G21     29.83R

$$
AND FOR LAKE MICHIGAN COASTAL AND OPEN LAKE BUOY OBSERVATIONS

STATION/POSITION TEMP    WIND        PRES    VSBY  WAVE
                 AIR SEA DIR/SP/G                  HT/PER
                 (F)     (DEG/KT/KT) (MB)    (MI)  (FT/S)
CALUMET HARBOR    75      90/  7/ 10   N/A
MICHIGAN CITY     78     350/  4/  5   N/A
BURNS HARBOR      76      40/  4/  6 1011.5S
SAINT JOSEPH      77     260/  5/  7 1011.9F
4 MI NW BRIDGMAN  74 73   10/ 10/ 12   N/A           2/ 4
MICHIGAN CITY     74 75   10/  6/  8   N/A           2/ 4

$$
&&



USA.gov is the U.S. government's official web portal to all federal, state and local government web resources and services.